• în Republica Moldova
  • Lista ţărilor
  • Pe 7 zile
  • Temperatura apei
  • Hartă satelitară
  • Meteo pe hartă
  • Widget-uri
  • user-avatar
    Intrare

    Meteo pe oră la Sumgait

    Astăzi, 29 Iunie, Joi

    Timp Temperatura Precipitaţii Vânt Presiune Umiditate
    00:00 +27°C° 0 mm 3 m/s 736 mmHg 37%
    01:00 +27°C° 0 mm 3 m/s 736 mmHg 41%
    02:00 +26°C° 0 mm 4 m/s 736 mmHg 45%
    03:00 +26°C° 0 mm 4 m/s 736 mmHg 49%
    04:00 +26°C° 0 mm 4 m/s 736 mmHg 47%
    05:00 +27°C° 0 mm 4 m/s 736 mmHg 46%
    06:00 +27°C° 0 mm 4 m/s 736 mmHg 44%
    07:00 +29°C° 0,1 mm 4 m/s 736 mmHg 40%
    08:00 +30°C° 0,1 mm 4 m/s 736 mmHg 35%
    09:00 +32°C° 0,1 mm 4 m/s 736 mmHg 31%
    10:00 +33°C° 0,1 mm 4 m/s 736 mmHg 29%
    11:00 +34°C° 0,1 mm 4 m/s 736 mmHg 27%
    12:00 +35°C° 0,1 mm 5 m/s 736 mmHg 25%
    13:00 +35°C° 0 mm 5 m/s 736 mmHg 25%
    14:00 +35°C° 0 mm 5 m/s 735 mmHg 24%
    15:00 +35°C° 0 mm 6 m/s 735 mmHg 24%
    16:00 +34°C° 0 mm 6 m/s 735 mmHg 25%
    17:00 +33°C° 0 mm 6 m/s 735 mmHg 26%
    18:00 +32°C° 0 mm 6 m/s 735 mmHg 27%
    19:00 +30°C° 0 mm 6 m/s 735 mmHg 30%
    20:00 +29°C° 0 mm 6 m/s 735 mmHg 32%
    21:00 +28°C° 0 mm 6 m/s 735 mmHg 35%
    22:00 +28°C° 0 mm 6 m/s 735 mmHg 36%
    23:00 +27°C° 0 mm 6 m/s 735 mmHg 37%

    Mâine, 30 Iunie, Vineri

    Timp Temperatura Precipitaţii Vânt Presiune Umiditate
    00:00 +27°C° 0 mm 6 m/s 735 mmHg 38%
    01:00 +27°C° 0 mm 6 m/s 735 mmHg 39%
    02:00 +27°C° 0 mm 6 m/s 735 mmHg 41%
    03:00 +26°C° 0 mm 6 m/s 734 mmHg 42%
    04:00 +27°C° 0 mm 6 m/s 735 mmHg 42%
    05:00 +27°C° 0 mm 7 m/s 735 mmHg 42%
    06:00 +28°C° 0 mm 7 m/s 735 mmHg 43%
    07:00 +29°C° 0 mm 7 m/s 735 mmHg 38%
    08:00 +32°C° 0 mm 8 m/s 736 mmHg 32%
    09:00 +33°C° 0 mm 9 m/s 736 mmHg 27%
    10:00 +34°C° 0 mm 9 m/s 736 mmHg 27%
    11:00 +34°C° 0 mm 10 m/s 736 mmHg 27%
    12:00 +36°C° 0 mm 10 m/s 736 mmHg 26%
    13:00 +36°C° 0 mm 10 m/s 736 mmHg 27%
    14:00 +34°C° 0 mm 10 m/s 736 mmHg 27%
    15:00 +34°C° 0 mm 11 m/s 735 mmHg 28%
    16:00 +34°C° 0 mm 10 m/s 735 mmHg 28%
    17:00 +33°C° 0 mm 10 m/s 735 mmHg 28%
    18:00 +32°C° 0 mm 9 m/s 735 mmHg 29%
    19:00 +32°C° 0 mm 9 m/s 736 mmHg 31%
    20:00 +31°C° 0 mm 9 m/s 736 mmHg 33%
    21:00 +29°C° 0 mm 8 m/s 736 mmHg 35%
    22:00 +29°C° 0 mm 8 m/s 736 mmHg 36%
    23:00 +28°C° 0 mm 8 m/s 736 mmHg 38%

    Poimâine, 1 Iulie, Sâmbătă

    Timp Temperatura Precipitaţii Vânt Presiune Umiditate
    00:00 +28°C° 0 mm 8 m/s 736 mmHg 39%
    01:00 +28°C° 0 mm 8 m/s 736 mmHg 41%
    02:00 +27°C° 0 mm 8 m/s 736 mmHg 42%
    03:00 +27°C° 0 mm 7 m/s 736 mmHg 44%
    04:00 +28°C° 0 mm 8 m/s 737 mmHg 43%
    05:00 +28°C° 0 mm 8 m/s 737 mmHg 42%
    06:00 +29°C° 0 mm 8 m/s 737 mmHg 40%
    07:00 +31°C° 0 mm 9 m/s 737 mmHg 37%
    08:00 +32°C° 0 mm 10 m/s 738 mmHg 33%
    09:00 +34°C° 0 mm 10 m/s 738 mmHg 29%
    10:00 +34°C° 0 mm 10 m/s 738 mmHg 29%
    11:00 +36°C° 0 mm 11 m/s 738 mmHg 28%
    12:00 +36°C° 0 mm 11 m/s 738 mmHg 27%
    13:00 +36°C° 0 mm 10 m/s 738 mmHg 27%
    14:00 +36°C° 0 mm 10 m/s 737 mmHg 27%
    15:00 +36°C° 0 mm 10 m/s 737 mmHg 28%
    16:00 +34°C° 0 mm 9 m/s 737 mmHg 29%
    17:00 +33°C° 0 mm 9 m/s 737 mmHg 30%
    18:00 +33°C° 0 mm 8 m/s 737 mmHg 32%
    19:00 +32°C° 0 mm 7 m/s 737 mmHg 34%
    20:00 +30°C° 0 mm 6 m/s 737 mmHg 36%
    21:00 +29°C° 0 mm 6 m/s 738 mmHg 38%
    22:00 +28°C° 0 mm 5 m/s 738 mmHg 38%
    23:00 +28°C° 0 mm 5 m/s 738 mmHg 38%

    2 Iulie, Duminică

    Timp Temperatura Precipitaţii Vânt Presiune Umiditate
    00:00 +28°C° 0 mm 5 m/s 737 mmHg 38%
    01:00 +27°C° 0 mm 4 m/s 737 mmHg 38%
    02:00 +27°C° 0 mm 4 m/s 737 mmHg 38%
    03:00 +27°C° 0 mm 4 m/s 737 mmHg 38%
    04:00 +27°C° 0 mm 4 m/s 737 mmHg 37%
    05:00 +28°C° 0 mm 4 m/s 737 mmHg 35%
    06:00 +29°C° 0 mm 4 m/s 737 mmHg 34%
    07:00 +30°C° 0 mm 4 m/s 737 mmHg 31%
    08:00 +33°C° 0 mm 4 m/s 737 mmHg 28%
    09:00 +34°C° 0 mm 4 m/s 737 mmHg 25%
    10:00 +35°C° 0 mm 4 m/s 737 mmHg 24%
    11:00 +36°C° 0 mm 4 m/s 737 mmHg 23%
    12:00 +37°C° 0 mm 4 m/s 737 mmHg 23%
    13:00 +37°C° 0 mm 4 m/s 736 mmHg 23%
    14:00 +37°C° 0 mm 4 m/s 736 mmHg 23%
    15:00 +38°C° 0 mm 4 m/s 736 mmHg 24%
    16:00 +37°C° 0 mm 4 m/s 735 mmHg 25%
    17:00 +36°C° 0 mm 4 m/s 735 mmHg 27%
    18:00 +36°C° 0 mm 4 m/s 735 mmHg 28%
    19:00 +34°C° 0 mm 3 m/s 735 mmHg 32%
    20:00 +32°C° 0 mm 2 m/s 735 mmHg 36%
    21:00 +30°C° 0 mm 2 m/s 735 mmHg 40%
    22:00 +30°C° 0 mm 2 m/s 735 mmHg 40%
    23:00 +29°C° 0 mm 1 m/s 735 mmHg 41%

    3 Iulie, Luni

    Timp Temperatura Precipitaţii Vânt Presiune Umiditate
    00:00 +28°C° 0 mm 1 m/s 735 mmHg 42%
    01:00 +28°C° 0 mm 1 m/s 734 mmHg 42%
    02:00 +28°C° 0 mm 1 m/s 734 mmHg 42%
    03:00 +28°C° 0 mm 1 m/s 734 mmHg 41%
    04:00 +28°C° 0 mm 2 m/s 734 mmHg 39%
    05:00 +29°C° 0 mm 2 m/s 734 mmHg 37%
    06:00 +30°C° 0 mm 2 m/s 734 mmHg 35%
    07:00 +33°C° 0 mm 3 m/s 734 mmHg 32%
    08:00 +34°C° 0 mm 3 m/s 734 mmHg 30%
    09:00 +36°C° 0 mm 4 m/s 734 mmHg 28%
    10:00 +37°C° 0 mm 4 m/s 734 mmHg 26%
    11:00 +39°C° 0 mm 5 m/s 733 mmHg 24%
    12:00 +40°C° 0 mm 5 m/s 733 mmHg 22%
    13:00 +40°C° 0 mm 6 m/s 733 mmHg 22%
    14:00 +40°C° 0 mm 6 m/s 732 mmHg 22%
    15:00 +40°C° 0 mm 6 m/s 732 mmHg 22%
    16:00 +39°C° 0 mm 6 m/s 732 mmHg 25%
    17:00 +38°C° 0 mm 6 m/s 732 mmHg 27%
    18:00 +35°C° 0 mm 5 m/s 732 mmHg 30%
    19:00 +34°C° 0 mm 4 m/s 732 mmHg 34%
    20:00 +31°C° 0 mm 3 m/s 732 mmHg 39%
    21:00 +30°C° 0 mm 3 m/s 732 mmHg 44%
    22:00 +30°C° 0 mm 2 m/s 732 mmHg 43%
    23:00 +29°C° 0 mm 2 m/s 731 mmHg 43%

    4 Iulie, Marţi

    Timp Temperatura Precipitaţii Vânt Presiune Umiditate
    00:00 +29°C° 0 mm 2 m/s 731 mmHg 43%
    01:00 +29°C° 0 mm 2 m/s 731 mmHg 44%
    02:00 +28°C° 0 mm 2 m/s 731 mmHg 44%
    03:00 +28°C° 0 mm 2 m/s 731 mmHg 45%
    04:00 +28°C° 0 mm 2 m/s 731 mmHg 44%
    05:00 +29°C° 0 mm 2 m/s 731 mmHg 43%
    06:00 +30°C° 0 mm 2 m/s 732 mmHg 42%
    07:00 +31°C° 0 mm 2 m/s 732 mmHg 38%
    08:00 +34°C° 0 mm 3 m/s 732 mmHg 34%
    09:00 +36°C° 0 mm 3 m/s 732 mmHg 29%
    10:00 +37°C° 0 mm 4 m/s 732 mmHg 27%
    11:00 +38°C° 0 mm 4 m/s 732 mmHg 25%
    12:00 +40°C° 0 mm 5 m/s 731 mmHg 22%
    13:00 +40°C° 0 mm 5 m/s 731 mmHg 21%
    14:00 +41°C° 0 mm 5 m/s 731 mmHg 21%
    15:00 +41°C° 0 mm 6 m/s 731 mmHg 20%
    16:00 +40°C° 0 mm 5 m/s 731 mmHg 20%
    17:00 +38°C° 0 mm 4 m/s 731 mmHg 21%
    18:00 +37°C° 0 mm 4 m/s 730 mmHg 21%
    19:00 +35°C° 0 mm 3 m/s 731 mmHg 24%
    20:00 +34°C° 0 mm 2 m/s 731 mmHg 26%
    21:00 +31°C° 0 mm 2 m/s 731 mmHg 28%
    22:00 +31°C° 0 mm 1 m/s 731 mmHg 28%
    23:00 +30°C° 0 mm 1 m/s 731 mmHg 29%
    Arată mai mult